FENGYUN 3A

Last updated on Tue Jan 14 2025 00:02:17 GMT+0000 (Coordinated Universal Time)

1 32958U 08026A 25013.33828903 .00000252 00000+0 14024-3 0 9992 2 32958 98.6317 320.6737 0008581 179.2950 180.8240 14.19338798861658
UTC large
Height (km)
Speed (km/s)
/
Latitude / Longitude
Inclination (degrees)
Orbital Period (minutes)
Azimuth
Elevation
Range (km)
Doppler Factor

Next 0 passes for location: London (51.5072 / 0.1276)

Sorry there are no passes over London.